STARLINK-4588 (53641 NORAD) Tracking and Keplerian Element Data

This shows tracking and keplerian element data for the satellite.

Feedback or suggestion? Click here.




ElementValue
Catalog53641
NameSTARLINK-4588
Epoch Orbit130
Epoch Day324.91667824
Epoch Year2022
RAAN232.5971
Inclination53.2176
Eccentricity0.0001342
Argument of Perigee56.4443
Mean Anonmoly343.2552
Mean Motion15.24236713
Decay Rate-0.01151479
L11 53641U 22104BF 22324.91667824 -.01151479 00000+0 -50508-1 0 9992
L22 53641 53.2176 232.5971 0001342 56.4443 343.2552 15.24236713 1302



Live tracking and technical data element details for STARLINK-4588 (NORAD 53641). STARLINK-4588 can be tracked NOW for your location showing map with azimuth and elevation plus other details from your city location.







IsCatalogInMostPopularTable: catalog: 53641, numindb: 24
Update: records affected: 1



GetName: 53641 STARLINK-4588

Hit Count: updated at: Thu, 08 Dec 2022 19:05:47 GMT